Location: Unspecified
(0.0000°N, 0.0000°E)
Time: 01:25:52
(UTC+00:00)

Explorer 7 - Pass Details

Date: 21 November 2019
Orbit: 485 x 680 km, 50.3° (Epoch: 11 December)

Event Time Altitude Azimuth Distance (km) Brightness Sun altitude
Rises 07:45:01 0° 334° (NNW) 2,553 9.8 27.9°
Reaches altitude 10° 07:47:16 10° 341° (NNW) 1,662 9.0 28.4°
Maximum altitude 07:50:50 43° 53° (NE) 687 8.0 29.2°
Drops below altitude 10° 07:54:23 10° 126° (SE) 1,662 10.8 30.0°
Sets 07:56:38 0° 133° (SE) 2,554 11.2 30.6°
